#timestamp,LO_Frequency,Hit,StdDev 
1701795615.5,286046985.2,N
1701795635.3,286046985.0,N
1701795655.2,286046984.8,N
1701795675.0,286046982.5,N
1701795675.9,286046982.5,N
1701795695.7,286046983.9,N
1701795715.6,286046982.3,Y
1701795735.4,286046993.9,P
1701795755.2,286046994.3,P
1701795775.1,286046994.6,P
1701795776.0,286046994.6,Y
1701795795.8,286047001.6,P
1701795815.6,286047004.1,N
1701795835.5,286047004.4,N
1701795855.3,286047002.5,N
1701795875.1,286047001.5,N
1701795895.9,286047004.3,N
1701795915.7,286047001.8,N
1701795935.5,286047002.2,N
1701795955.4,286047004.4,N
1701795975.2,286047004.0,N
1701795995.0,286047003.4,N
1701795995.9,286047003.4,N
1701796015.8,286047004.2,N
1701796035.6,286047003.2,N
1701796055.4,286047001.7,N
1701796075.3,286047003.8,N
1701796095.1,286047003.6,N
1701796115.8,286047004.3,N
1701796135.7,286047005.5,N
1701796155.5,286047001.6,N
1701796175.3,286047000.2,N
1701796195.2,286046998.3,N
1701796215.0,286046999.4,N
1701796215.9,286046999.4,N
1701796235.8,286046999.2,N
1701796255.6,286047000.6,N
1701796275.4,286047002.7,N
1701796295.3,286047000.2,N
1701796315.1,286047000.8,N
1701796316.0,286047000.8,N
1701796335.8,286046998.2,N
1701796355.7,286047002.4,N
1701796375.5,286047003.7,N
1701796395.3,286047004.0,N
1701796415.2,286047005.1,N
1701796435.9,286047006.3,Y
1701796455.7,286047007.4,P
1701796475.6,286047005.3,N
1701796495.4,286047005.5,N
1701796515.2,286047001.7,N
1701796535.1,286047004.7,N
1701796536.0,286047004.7,N
1701796555.8,286047007.4,Y
1701796575.6,286047002.2,P
1701796595.5,286047000.4,N
1701796615.3,286046998.6,N
1701796635.1,286046998.3,N
1701796655.9,286047001.2,N
1701796675.7,286046999.4,N
1701796695.5,286046999.5,N
1701796715.4,286047000.8,N
1701796735.2,286047001.7,N
1701796755.0,286047003.4,N
1701796755.9,286047003.4,N
1701796775.8,286047004.3,N
1701796795.6,286047005.6,N
1701796815.4,286047007.4,Y
1701796835.3,286047007.4,P
1701796855.1,286047007.0,N
1701796875.8,286047006.0,N
1701796895.7,286047003.8,N
1701796915.5,286047002.8,N
1701796935.3,286047002.7,N
1701796955.2,286047004.1,N
1701796975.9,286047005.5,N
1701796995.7,286047004.1,N
1701797015.6,286047000.5,N
1701797035.4,286046999.8,N
1701797055.2,286047003.3,N
1701797075.1,286047004.7,N
1701797076.0,286047004.7,N
1701797095.8,286047005.3,N
1701797115.6,286047003.3,N
1701797135.5,286047001.3,N
1701797155.3,286047002.8,N
1701797175.1,286047002.1,N
1701797195.9,286047001.3,N
1701797215.7,286047002.3,N
1701797235.5,286047000.4,N
1701797255.4,286047001.1,N
1701797275.2,286046998.6,N
1701797295.0,286047002.8,N
1701797295.9,286047002.8,N
1701797315.8,286047000.1,N
1701797335.6,286047000.2,N
1701797355.4,286047001.4,N
1701797375.3,286047004.0,N
1701797395.1,286047005.5,N
1701797415.8,286047001.3,N
1701797435.7,286047002.0,N
1701797455.5,286047004.2,N
1701797475.3,286047002.1,N
1701797495.2,286047002.8,N
1701797515.0,286047002.5,N
1701797515.9,286047002.5,N
1701797535.7,286047001.5,N
1701797555.6,286047004.4,N
1701797575.4,286047003.2,N
1701797595.2,286047004.0,N
1701797615.1,286047002.5,N
1701797616.0,286047002.5,N
1701797635.8,286047002.2,N
1701797655.6,286047005.4,Y
1701797675.5,286047004.0,P
1701797695.3,286047000.7,N
1701797715.1,286047000.7,N
1701797735.9,286046999.8,N
1701797755.7,286047004.0,N
1701797775.5,286047001.9,N
1701797795.4,286047004.3,N
1701797815.2,286047009.0,Y
1701797835.0,286047003.3,P
1701797835.9,286047003.3,P
1701797855.8,286047009.2,P
1701797875.6,286047012.3,Y
1701797895.4,286047007.8,P
1701797915.3,286047009.2,P
1701797935.1,286047006.5,P
1701797955.9,286047011.6,Y
1701797975.7,286047006.1,P
1701797995.5,286047009.6,P
1701798015.4,286047010.6,P
1701798035.2,286047012.1,Y
1701798055.0,286047000.3,P
1701798055.9,286047000.3,N
1701798075.8,286047000.1,N
1701798095.6,286047000.5,N
1701798115.4,286047002.5,N
1701798135.3,286047002.6,N
1701798155.1,286047000.6,N
1701798156.0,286047000.6,N
1701798175.8,286046996.5,N
1701798195.7,286046996.7,N
1701798215.5,286046999.4,N
1701798235.3,286046998.4,N
1701798255.2,286046999.7,N
1701798275.9,286047000.8,N
1701798295.7,286047001.0,N
1701798315.6,286046997.0,N
1701798335.4,286046997.3,N
1701798355.2,286046996.0,N
1701798375.1,286046993.4,N
1701798376.0,286046993.4,N
1701798395.8,286046995.9,N
1701798415.6,286046997.0,N
1701798435.5,286047000.5,N
1701798455.3,286047000.1,N
1701798475.1,286046997.5,N
1701798495.8,286046999.6,N
1701798515.7,286046996.1,N
1701798535.5,286046995.5,N
1701798555.3,286046999.5,N
1701798575.2,286046998.2,N
1701798595.0,286046998.1,N
1701798595.9,286046998.1,N
1701798615.7,286047002.2,N
1701798635.6,286046998.6,N
1701798655.4,286046999.7,N
1701798675.2,286046999.7,N
1701798695.1,286047005.5,N
1701798696.0,286047005.5,N
1701798715.8,286047005.8,N
1701798735.7,286047004.9,N
1701798755.5,286047001.4,N
1701798775.3,286047004.5,N
1701798795.1,286047005.2,N
1701798815.9,286047007.4,N
1701798835.7,286047006.9,N
1701798855.6,286047004.8,N
1701798875.4,286047007.4,N
1701798895.2,286047006.3,N
1701798915.0,286047005.7,N
1701798916.0,286047005.7,N
1701798935.8,286047001.9,N
1701798955.6,286047000.3,N
1701798975.5,286046996.5,N
1701798995.3,286046995.9,N
1701799015.1,286046993.1,N
1701799035.9,286046989.1,N
1701799055.7,286046987.6,N
1701799075.5,286046988.2,N
1701799095.4,286046984.2,N
1701799115.2,286046982.4,N
1701799135.0,286046982.8,N
1701799135.9,286046982.8,N
1701799155.8,286046981.0,N
1701799175.6,286046977.5,N
1701799195.4,286046978.2,N
